Time,TemperatureF,DewpointF,PressureIn,WindDirection,WindDirectionDegrees,WindSpeedMPH,WindSpeedGustMPH,Humidity,HourlyPrecipIn,Conditions,Clouds,dailyrainin,SolarRadiationWatts/m^2,SoftwareType,DateUTC
2013-01-22 00:00:00,6.6,-5.8,30.06,WNW,296,5.0,13.0,56,0.00,OVC,OVC,0.00,0.0,WeatherDisplay:10.37,2013-01-22 05:00:00,
2013-01-22 00:01:00,6.6,-5.8,30.06,WNW,292,4.9,8.1,56,0.00,OVC,,0.00,0.0,WeatherDisplay:10.37,2013-01-22 05:01:00,
2013-01-22 00:02:00,6.6,-5.8,30.06,WNW,292,5.4,8.1,56,0.00,OVC,,0.00,0.0,WeatherDisplay:10.37,2013-01-22 05:02:00,
2013-01-22 00:07:00,6.4,-5.9,30.06,WSW,248,5.6,7.6,56,0.00,OVC,,0.00,0.0,WeatherDisplay:10.37,2013-01-22 05:07:00,
2013-01-22 00:12:00,6.4,-5.9,30.09,WNW,292,4.5,6.9,56,0.00,OVC,,0.00,0.0,WeatherDisplay:10.37,2013-01-22 05:12:00,
2013-01-22 00:17:00,6.4,-5.9,30.09,NW,315,5.4,5.8,56,0.00,OVC,,0.00,0.0,WeatherDisplay:10.37,2013-01-22 05:17:00,
2013-01-22 00:22:00,6.4,-5.9,30.09,West,270,4.3,5.8,56,0.00,OVC,,0.00,0.0,WeatherDisplay:10.37,2013-01-22 05:22:00,
2013-01-22 00:27:00,6.4,-5.9,30.06,WNW,292,4.0,5.8,56,0.00,OVC,,0.00,0.0,WeatherDisplay:10.37,2013-01-22 05:27:00,
2013-01-22 00:32:00,6.3,-6.1,30.06,NNW,338,6.2,10.4,56,0.00,OVC,,0.00,0.0,WeatherDisplay:10.37,2013-01-22 05:32:00,
2013-01-22 00:37:00,6.1,-6.3,30.06,NW,315,6.2,10.4,56,0.00,OVC,,0.00,0.0,WeatherDisplay:10.37,2013-01-22 05:37:00,
2013-01-22 00:42:00,6.1,-6.3,30.06,WNW,292,7.1,8.1,56,0.00,OVC,,0.00,0.0,WeatherDisplay:10.37,2013-01-22 05:42:00,
2013-01-22 00:47:00,5.9,-6.5,30.06,WNW,292,3.8,5.8,56,0.00,OVC,,0.00,0.0,WeatherDisplay:10.37,2013-01-22 05:47:00,
2013-01-22 00:52:00,5.9,-6.5,30.06,WNW,292,6.9,9.2,56,0.00,OVC,,0.00,0.0,WeatherDisplay:10.37,2013-01-22 05:52:00,
2013-01-22 00:57:00,5.7,-6.6,30.06,NW,315,4.0,4.7,56,0.00,OVC,,0.00,0.0,WeatherDisplay:10.37,2013-01-22 05:57:00,
2013-01-22 01:02:00,5.7,-6.6,30.06,WNW,292,6.0,10.4,56,0.00,SCT,OVC,0.00,0.0,WeatherDisplay:10.37,2013-01-22 06:02:00,
2013-01-22 01:07:00,5.5,-6.8,30.06,WNW,292,4.5,7.4,56,0.00,SCT,OVC,0.00,0.0,WeatherDisplay:10.37,2013-01-22 06:07:00,
2013-01-22 01:12:00,5.4,-7.0,30.06,WNW,292,4.9,7.6,56,0.00,SCT,OVC,0.00,0.0,WeatherDisplay:10.37,2013-01-22 06:12:00,
2013-01-22 01:17:00,5.4,-7.0,30.06,WNW,292,5.9,8.1,56,0.00,SCT,OVC,0.00,0.0,WeatherDisplay:10.37,2013-01-22 06:17:00,
2013-01-22 01:22:00,5.4,-7.0,30.06,NNW,338,2.4,4.6,56,0.00,SCT,OVC,0.00,0.0,WeatherDisplay:10.37,2013-01-22 06:22:00,
2013-01-22 01:27:00,5.2,-7.1,30.06,WNW,292,3.6,4.6,56,0.00,SCT,OVC,0.00,0.0,WeatherDisplay:10.37,2013-01-22 06:27:00,
2013-01-22 01:32:00,5.2,-7.1,30.06,WNW,292,3.3,5.8,56,0.00,SCT,OVC,0.00,0.0,WeatherDisplay:10.37,2013-01-22 06:32:00,
2013-01-22 01:37:00,5.2,-7.1,30.06,WNW,292,3.6,5.8,56,0.00,SCT,OVC,0.00,0.0,WeatherDisplay:10.37,2013-01-22 06:37:00,
2013-01-22 01:42:00,5.0,-7.3,30.09,WNW,292,3.6,6.0,56,0.00,SCT,OVC,0.00,0.0,WeatherDisplay:10.37,2013-01-22 06:42:00,
2013-01-22 01:47:00,5.0,-7.3,30.09,NW,315,4.9,6.9,56,0.00,SCT,OVC,0.00,0.0,WeatherDisplay:10.37,2013-01-22 06:47:00,
2013-01-22 01:52:00,5.0,-7.3,30.09,West,270,4.3,5.8,56,0.00,SCT,OVC,0.00,0.0,WeatherDisplay:10.37,2013-01-22 06:52:00,
2013-01-22 01:57:00,5.0,-7.3,30.06,WNW,292,4.0,4.0,56,0.00,SCT,OVC,0.00,0.0,WeatherDisplay:10.37,2013-01-22 06:57:00,
2013-01-22 02:02:00,5.0,-7.3,30.06,WSW,248,4.3,5.8,56,0.00,BKN,OVC,0.00,0.0,WeatherDisplay:10.37,2013-01-22 07:02:00,
2013-01-22 02:07:00,5.2,-7.1,30.06,West,270,2.9,4.6,56,0.00,BKN,OVC,0.00,0.0,WeatherDisplay:10.37,2013-01-22 07:07:00,
2013-01-22 02:12:00,5.0,-7.3,30.09,West,270,4.7,8.1,56,0.00,BKN,OVC,0.00,0.0,WeatherDisplay:10.37,2013-01-22 07:12:00,
2013-01-22 02:17:00,5.0,-7.3,30.09,WNW,292,4.5,8.1,56,0.00,BKN,OVC,0.00,0.0,WeatherDisplay:10.37,2013-01-22 07:17:00,
2013-01-22 02:22:00,4.6,-7.6,30.09,NW,315,4.3,9.2,56,0.00,BKN,OVC,0.00,0.0,WeatherDisplay:10.37,2013-01-22 07:22:00,
2013-01-22 02:27:00,4.5,-7.8,30.12,West,270,4.5,5.8,56,0.00,BKN,OVC,0.00,0.0,WeatherDisplay:10.37,2013-01-22 07:27:00,
2013-01-22 02:32:00,4.5,-7.8,30.12,WNW,292,3.6,5.8,56,0.00,BKN,OVC,0.00,0.0,WeatherDisplay:10.37,2013-01-22 07:32:00,
2013-01-22 02:37:00,4.5,-7.8,30.12,WNW,292,3.6,6.9,56,0.00,BKN,OVC,0.00,0.0,WeatherDisplay:10.37,2013-01-22 07:37:00,
2013-01-22 02:42:00,4.3,-8.0,30.12,WNW,292,5.4,8.5,56,0.00,BKN,OVC,0.00,0.0,WeatherDisplay:10.37,2013-01-22 07:42:00,
2013-01-22 02:47:00,4.1,-8.1,30.12,WNW,292,4.7,6.7,56,0.00,BKN,OVC,0.00,0.0,WeatherDisplay:10.37,2013-01-22 07:47:00,
2013-01-22 02:52:00,3.9,-8.3,30.12,WNW,292,8.5,12.7,56,0.00,BKN,OVC,0.00,0.0,WeatherDisplay:10.37,2013-01-22 07:52:00,
2013-01-22 02:57:00,3.7,-8.5,30.12,NW,315,8.5,11.5,56,0.00,BKN,OVC,0.00,0.0,WeatherDisplay:10.37,2013-01-22 07:57:00,
2013-01-22 03:03:00,3.4,-8.8,30.12,WNW,292,6.7,10.4,56,0.00,FEW,OVC,0.00,0.0,WeatherDisplay:10.37,2013-01-22 08:03:00,
2013-01-22 03:08:00,3.2,-9.0,30.12,WNW,292,5.4,6.9,56,0.00,FEW,OVC,0.00,0.0,WeatherDisplay:10.37,2013-01-22 08:08:00,
2013-01-22 03:13:00,3.2,-9.0,30.12,WNW,292,8.5,12.7,56,0.00,FEW,OVC,0.00,0.0,WeatherDisplay:10.37,2013-01-22 08:13:00,
2013-01-22 03:18:00,3.2,-9.0,30.12,West,270,4.0,5.8,56,0.00,FEW,OVC,0.00,0.0,WeatherDisplay:10.37,2013-01-22 08:18:00,
2013-01-22 03:23:00,3.0,-9.2,30.12,WNW,292,4.7,6.9,56,0.00,FEW,OVC,0.00,0.0,WeatherDisplay:10.37,2013-01-22 08:23:00,
2013-01-22 03:28:00,3.0,-9.2,30.12,WNW,292,5.6,5.8,56,0.00,FEW,OVC,0.00,0.0,WeatherDisplay:10.37,2013-01-22 08:28:00,
2013-01-22 03:33:00,3.0,-9.2,30.12,WSW,248,5.4,6.9,56,0.00,FEW,OVC,0.00,41.2,WeatherDisplay:10.37,2013-01-22 08:33:00,
2013-01-22 03:38:00,3.0,-9.2,30.12,WNW,292,7.1,8.1,56,0.00,FEW,OVC,0.00,43.1,WeatherDisplay:10.37,2013-01-22 08:38:00,
2013-01-22 03:43:00,3.0,-9.2,30.12,West,270,7.1,8.1,56,0.00,FEW,OVC,0.00,45.0,WeatherDisplay:10.37,2013-01-22 08:43:00,
2013-01-22 03:48:00,2.8,-9.3,30.12,SSW,202,5.4,8.1,56,0.00,FEW,OVC,0.00,47.3,WeatherDisplay:10.37,2013-01-22 08:48:00,
2013-01-22 03:53:00,2.8,-9.3,30.12,WNW,292,5.9,9.2,56,0.00,FEW,OVC,0.00,0.0,WeatherDisplay:10.37,2013-01-22 08:53:00,
2013-01-22 03:58:00,2.8,-9.3,30.09,WSW,248,4.7,7.4,56,0.00,FEW,OVC,0.00,0.0,WeatherDisplay:10.37,2013-01-22 08:58:00,
2013-01-22 04:03:00,2.8,-9.3,30.09,West,270,3.1,8.1,56,0.00,CLR,OVC,0.00,0.0,WeatherDisplay:10.37,2013-01-22 09:03:00,
2013-01-22 04:08:00,2.8,-9.3,30.09,WNW,292,5.4,6.9,56,0.00,CLR,OVC,0.00,0.0,WeatherDisplay:10.37,2013-01-22 09:08:00,
2013-01-22 04:13:00,2.5,-9.7,30.09,NW,315,7.1,9.2,56,0.00,CLR,OVC,0.00,0.0,WeatherDisplay:10.37,2013-01-22 09:13:00,
2013-01-22 04:18:00,2.5,-9.7,30.09,NW,315,7.1,10.2,56,0.00,CLR,OVC,0.00,0.0,WeatherDisplay:10.37,2013-01-22 09:18:00,
2013-01-22 04:23:00,2.3,-9.8,30.09,WNW,292,6.0,8.1,56,0.00,CLR,OVC,0.00,0.0,WeatherDisplay:10.37,2013-01-22 09:23:00,
2013-01-22 04:28:00,2.3,-9.8,30.12,WNW,292,4.7,6.9,56,0.00,CLR,OVC,0.00,0.0,WeatherDisplay:10.37,2013-01-22 09:28:00,
2013-01-22 04:33:00,2.1,-10.0,30.12,West,270,4.7,9.2,56,0.00,CLR,OVC,0.00,0.0,WeatherDisplay:10.37,2013-01-22 09:33:00,
2013-01-22 04:38:00,2.1,-10.0,30.12,WNW,292,4.9,8.1,56,0.00,CLR,OVC,0.00,0.0,WeatherDisplay:10.37,2013-01-22 09:38:00,
2013-01-22 04:43:00,2.1,-10.0,30.12,WNW,292,5.4,7.1,56,0.00,CLR,OVC,0.00,0.0,WeatherDisplay:10.37,2013-01-22 09:43:00,
2013-01-22 04:48:00,1.9,-10.2,30.12,WNW,292,5.6,6.9,56,0.00,CLR,OVC,0.00,0.0,WeatherDisplay:10.37,2013-01-22 09:48:00,
2013-01-22 04:53:00,1.9,-10.2,30.12,WNW,292,4.3,5.8,56,0.00,CLR,OVC,0.00,0.0,WeatherDisplay:10.37,2013-01-22 09:53:00,
2013-01-22 04:58:00,1.8,-10.3,30.15,West,270,3.6,5.8,56,0.00,CLR,OVC,0.00,0.0,WeatherDisplay:10.37,2013-01-22 09:58:00,
2013-01-22 05:03:00,1.9,-10.2,30.15,WNW,292,3.6,5.8,56,0.00,CLR,OVC,0.00,0.0,WeatherDisplay:10.37,2013-01-22 10:03:00,
2013-01-22 05:08:00,1.9,-10.2,30.15,West,270,4.0,4.6,56,0.00,CLR,OVC,0.00,0.0,WeatherDisplay:10.37,2013-01-22 10:08:00,
2013-01-22 05:13:00,1.9,-10.2,30.15,West,270,2.6,4.6,56,0.00,CLR,OVC,0.00,0.0,WeatherDisplay:10.37,2013-01-22 10:13:00,
2013-01-22 05:18:00,1.9,-10.2,30.15,WSW,248,4.0,5.8,56,0.00,CLR,OVC,0.00,0.0,WeatherDisplay:10.37,2013-01-22 10:18:00,
2013-01-22 05:23:00,1.9,-10.2,30.15,West,270,2.0,3.5,56,0.00,CLR,OVC,0.00,0.0,WeatherDisplay:10.37,2013-01-22 10:23:00,
2013-01-22 05:28:00,1.8,-10.3,30.18,WNW,292,4.3,5.8,56,0.00,CLR,OVC,0.00,0.0,WeatherDisplay:10.37,2013-01-22 10:28:00,
2013-01-22 05:33:00,1.8,-10.3,30.18,WSW,248,3.3,4.6,56,0.00,CLR,OVC,0.00,0.0,WeatherDisplay:10.37,2013-01-22 10:33:00,
2013-01-22 05:38:00,1.6,-10.5,30.18,West,270,3.6,5.6,56,0.00,CLR,OVC,0.00,0.0,WeatherDisplay:10.37,2013-01-22 10:38:00,
2013-01-22 05:43:00,1.6,-10.5,30.18,West,270,2.9,4.6,56,0.00,CLR,OVC,0.00,0.0,WeatherDisplay:10.37,2013-01-22 10:43:00,
2013-01-22 05:48:00,1.6,-10.5,30.18,WNW,292,4.0,4.6,56,0.00,CLR,OVC,0.00,0.0,WeatherDisplay:10.37,2013-01-22 10:48:00,
2013-01-22 05:53:00,1.4,-10.7,30.18,WSW,248,3.1,4.9,56,0.00,CLR,OVC,0.00,0.0,WeatherDisplay:10.37,2013-01-22 10:53:00,
2013-01-22 05:58:00,1.4,-10.7,30.15,WSW,248,3.3,4.6,56,0.00,CLR,OVC,0.00,0.0,WeatherDisplay:10.37,2013-01-22 10:58:00,
2013-01-22 06:03:00,1.2,-10.9,30.15,West,270,2.4,4.6,56,0.00,CLR,OVC,0.00,0.0,WeatherDisplay:10.37,2013-01-22 11:03:00,
2013-01-22 06:08:00,1.2,-10.9,30.15,West,270,1.6,3.5,56,0.00,CLR,OVC,0.00,0.0,WeatherDisplay:10.37,2013-01-22 11:08:00,
2013-01-22 06:13:00,1.2,-10.9,30.18,WSW,248,0.0,0.0,56,0.00,CLR,OVC,0.00,0.0,WeatherDisplay:10.37,2013-01-22 11:13:00,
2013-01-22 06:18:00,1.2,-10.9,30.18,WSW,248,0.0,0.0,56,0.00,CLR,OVC,0.00,0.0,WeatherDisplay:10.37,2013-01-22 11:18:00,
2013-01-22 06:23:00,1.2,-10.9,30.18,WSW,248,1.4,3.5,56,0.00,CLR,OVC,0.00,0.0,WeatherDisplay:10.37,2013-01-22 11:23:00,
2013-01-22 06:28:00,1.0,-11.0,30.18,WSW,248,3.8,4.6,56,0.00,CLR,OVC,0.00,0.0,WeatherDisplay:10.37,2013-01-22 11:28:00,
2013-01-22 06:33:00,0.9,-11.2,30.18,WSW,248,2.9,3.5,56,0.00,CLR,OVC,0.00,0.0,WeatherDisplay:10.37,2013-01-22 11:33:00,
2013-01-22 06:38:00,0.9,-11.2,30.18,West,270,3.1,5.8,56,0.00,CLR,OVC,0.00,0.0,WeatherDisplay:10.37,2013-01-22 11:38:00,
2013-01-22 06:43:00,0.7,-11.4,30.18,WNW,292,2.9,3.5,56,0.00,CLR,OVC,0.00,0.0,WeatherDisplay:10.37,2013-01-22 11:43:00,
2013-01-22 06:48:00,0.7,-11.4,30.18,WSW,248,3.1,4.3,56,0.00,CLR,OVC,0.00,0.0,WeatherDisplay:10.37,2013-01-22 11:48:00,
2013-01-22 06:53:00,0.7,-11.4,30.18,WSW,248,3.3,4.6,56,0.00,CLR,OVC,0.00,0.0,WeatherDisplay:10.37,2013-01-22 11:53:00,
2013-01-22 06:58:00,0.7,-11.4,30.21,West,270,3.1,4.3,56,0.00,CLR,OVC,0.00,0.0,WeatherDisplay:10.37,2013-01-22 11:58:00,
2013-01-22 07:03:00,0.7,-11.4,30.21,WSW,248,4.0,5.8,56,0.00,CLR,OVC,0.00,0.0,WeatherDisplay:10.37,2013-01-22 12:03:00,
2013-01-22 07:08:00,0.3,-11.7,30.21,West,270,3.6,5.8,56,0.00,CLR,OVC,0.00,0.0,WeatherDisplay:10.37,2013-01-22 12:08:00,
2013-01-22 07:13:00,0.3,-11.7,30.21,WSW,248,3.6,5.6,56,0.00,CLR,OVC,0.00,0.0,WeatherDisplay:10.37,2013-01-22 12:13:00,
2013-01-22 07:18:00,0.3,-11.7,30.21,West,270,4.3,5.8,56,0.00,CLR,OVC,0.00,0.0,WeatherDisplay:10.37,2013-01-22 12:18:00,
2013-01-22 07:23:00,0.1,-11.9,30.21,WNW,292,3.6,5.8,56,0.00,CLR,OVC,0.00,0.0,WeatherDisplay:10.37,2013-01-22 12:23:00,
2013-01-22 07:28:00,0.1,-11.9,30.21,WNW,292,4.9,8.1,56,0.00,CLR,OVC,0.00,0.0,WeatherDisplay:10.37,2013-01-22 12:28:00,
2013-01-22 07:33:00,0.3,-11.7,30.21,WSW,248,2.6,5.8,56,0.00,CLR,OVC,0.00,0.0,WeatherDisplay:10.37,2013-01-22 12:33:00,
2013-01-22 07:38:00,0.5,-11.5,30.21,WNW,292,3.6,4.6,56,0.00,CLR,OVC,0.00,0.0,WeatherDisplay:10.37,2013-01-22 12:38:00,
2013-01-22 07:43:00,0.5,-11.5,30.21,West,270,3.6,3.6,56,0.00,CLR,OVC,0.00,0.0,WeatherDisplay:10.37,2013-01-22 12:43:00,
2013-01-22 07:48:00,0.7,-11.4,30.21,WSW,248,3.1,4.6,56,0.00,CLR,OVC,0.00,0.0,WeatherDisplay:10.37,2013-01-22 12:48:00,
2013-01-22 07:53:00,0.7,-11.4,30.21,WSW,248,3.8,5.4,56,0.00,CLR,OVC,0.00,0.0,WeatherDisplay:10.37,2013-01-22 12:53:00,
2013-01-22 07:58:00,0.7,-11.4,30.21,WSW,248,2.4,4.9,56,0.00,CLR,OVC,0.00,0.0,WeatherDisplay:10.37,2013-01-22 12:58:00,
2013-01-22 08:03:00,0.7,-11.4,30.21,WSW,248,3.8,5.8,56,0.00,BKN,OVC,0.00,0.0,WeatherDisplay:10.37,2013-01-22 13:03:00,
2013-01-22 08:09:00,1.6,-10.5,30.21,WSW,248,2.9,4.9,56,0.00,BKN,OVC,0.00,0.0,WeatherDisplay:10.37,2013-01-22 13:09:00,
2013-01-22 08:14:00,1.6,-10.5,30.21,WSW,248,2.4,4.6,56,0.00,BKN,OVC,0.00,0.0,WeatherDisplay:10.37,2013-01-22 13:14:00,
2013-01-22 08:19:00,1.4,-10.7,30.21,WSW,248,5.6,5.8,56,0.00,BKN,OVC,0.00,0.0,WeatherDisplay:10.37,2013-01-22 13:19:00,
2013-01-22 08:24:00,1.4,-10.7,30.21,WSW,248,4.3,5.8,56,0.00,BKN,OVC,0.00,0.0,WeatherDisplay:10.37,2013-01-22 13:24:00,
2013-01-22 08:29:00,1.4,-10.7,30.24,WSW,248,5.4,5.8,56,0.00,BKN,OVC,0.00,0.0,WeatherDisplay:10.37,2013-01-22 13:29:00,
2013-01-22 08:34:00,1.4,-10.7,30.24,WSW,248,4.0,6.4,56,0.00,BKN,OVC,0.00,0.0,WeatherDisplay:10.37,2013-01-22 13:34:00,
2013-01-22 08:39:00,1.6,-10.5,30.24,WSW,248,6.9,9.2,56,0.00,BKN,OVC,0.00,0.0,WeatherDisplay:10.37,2013-01-22 13:39:00,
2013-01-22 08:44:00,1.6,-10.5,30.24,WSW,248,5.6,8.1,56,0.00,BKN,OVC,0.00,0.0,WeatherDisplay:10.37,2013-01-22 13:44:00,
2013-01-22 08:49:00,1.6,-10.5,30.24,WNW,292,4.7,9.2,56,0.00,BKN,OVC,0.00,0.0,WeatherDisplay:10.37,2013-01-22 13:49:00,
2013-01-22 08:54:00,1.6,-10.5,30.24,West,270,5.9,9.2,56,0.00,BKN,OVC,0.00,0.0,WeatherDisplay:10.37,2013-01-22 13:54:00,
2013-01-22 08:59:00,1.6,-10.5,30.24,WNW,292,4.0,8.1,56,0.00,BKN,OVC,0.00,0.0,WeatherDisplay:10.37,2013-01-22 13:59:00,
2013-01-22 09:04:00,1.8,-10.3,30.24,NW,315,4.7,5.8,56,0.00,OVC,,0.00,0.0,WeatherDisplay:10.37,2013-01-22 14:04:00,
2013-01-22 09:09:00,1.8,-10.3,30.24,WSW,248,5.6,8.1,56,0.00,OVC,,0.00,0.0,WeatherDisplay:10.37,2013-01-22 14:09:00,
2013-01-22 09:14:00,1.9,-10.2,30.24,WSW,248,4.5,7.1,56,0.00,OVC,,0.00,0.0,WeatherDisplay:10.37,2013-01-22 14:14:00,
2013-01-22 09:19:00,2.1,-10.0,30.24,West,270,4.3,5.8,56,0.00,OVC,,0.00,0.0,WeatherDisplay:10.37,2013-01-22 14:19:00,
2013-01-22 09:24:00,2.5,-9.7,30.24,West,270,5.6,6.0,56,0.00,OVC,,0.00,100.0,WeatherDisplay:10.37,2013-01-22 14:24:00,
2013-01-22 09:29:00,2.5,-9.7,30.24,WSW,248,6.4,8.1,56,0.00,OVC,,0.00,100.0,WeatherDisplay:10.37,2013-01-22 14:29:00,
2013-01-22 09:34:00,2.7,-9.5,30.24,WNW,292,6.4,9.2,56,0.00,OVC,,0.00,100.0,WeatherDisplay:10.37,2013-01-22 14:34:00,
2013-01-22 09:39:00,2.8,-9.3,30.24,WSW,248,4.9,6.9,56,0.00,OVC,,0.00,100.0,WeatherDisplay:10.37,2013-01-22 14:39:00,
2013-01-22 09:44:00,2.8,-9.3,30.24,WSW,248,4.7,6.9,56,0.00,OVC,,0.00,100.0,WeatherDisplay:10.37,2013-01-22 14:44:00,
2013-01-22 09:49:00,3.0,-9.2,30.24,WSW,248,4.9,6.9,56,0.00,OVC,,0.00,100.0,WeatherDisplay:10.37,2013-01-22 14:49:00,
2013-01-22 09:54:00,3.2,-9.0,30.24,West,270,6.7,8.1,56,0.00,OVC,,0.00,100.0,WeatherDisplay:10.37,2013-01-22 14:54:00,
2013-01-22 09:59:00,3.2,-9.0,30.21,WNW,292,6.0,8.1,56,0.00,OVC,,0.00,100.0,WeatherDisplay:10.37,2013-01-22 14:59:00,
2013-01-22 10:04:00,3.4,-8.8,30.21,WNW,292,4.9,5.8,56,0.00,BKN,OVC,0.00,100.0,WeatherDisplay:10.37,2013-01-22 15:04:00,
2013-01-22 10:09:00,3.7,-8.5,30.21,WNW,292,4.5,5.8,56,0.00,BKN,OVC,0.00,100.0,WeatherDisplay:10.37,2013-01-22 15:09:00,
2013-01-22 10:14:00,3.7,-8.5,30.21,WSW,248,3.6,4.6,56,0.00,BKN,OVC,0.00,100.0,WeatherDisplay:10.37,2013-01-22 15:14:00,
2013-01-22 10:19:00,4.1,-8.1,30.21,WSW,248,6.2,9.2,56,0.00,BKN,OVC,0.00,100.0,WeatherDisplay:10.37,2013-01-22 15:19:00,
2013-01-22 10:24:00,4.5,-7.8,30.21,WNW,292,6.4,8.1,56,0.00,BKN,OVC,0.00,100.0,WeatherDisplay:10.37,2013-01-22 15:24:00,
2013-01-22 10:29:00,4.6,-7.6,30.24,WSW,248,6.4,9.2,56,0.00,BKN,OVC,0.00,200.0,WeatherDisplay:10.37,2013-01-22 15:29:00,
2013-01-22 10:34:00,4.8,-7.5,30.24,WNW,292,6.2,6.9,56,0.00,BKN,OVC,0.00,200.0,WeatherDisplay:10.37,2013-01-22 15:34:00,
2013-01-22 10:39:00,5.0,-7.3,30.24,WSW,248,3.3,5.8,56,0.00,BKN,OVC,0.00,200.0,WeatherDisplay:10.37,2013-01-22 15:39:00,
2013-01-22 10:44:00,5.0,-7.3,30.21,West,270,5.9,8.1,56,0.00,BKN,OVC,0.00,200.0,WeatherDisplay:10.37,2013-01-22 15:44:00,
2013-01-22 10:49:00,5.4,-7.0,30.21,WNW,292,5.6,8.1,56,0.00,BKN,OVC,0.00,200.0,WeatherDisplay:10.37,2013-01-22 15:49:00,
2013-01-22 10:54:00,5.4,-7.0,30.21,WNW,292,5.4,9.2,56,0.00,BKN,OVC,0.00,200.0,WeatherDisplay:10.37,2013-01-22 15:54:00,
2013-01-22 10:59:00,5.4,-7.0,30.24,WNW,292,4.3,6.9,56,0.00,BKN,OVC,0.00,200.0,WeatherDisplay:10.37,2013-01-22 15:59:00,
2013-01-22 11:04:00,5.5,-6.8,30.24,WNW,292,7.6,10.4,56,0.00,FEW,OVC,0.00,200.0,WeatherDisplay:10.37,2013-01-22 16:04:00,
2013-01-22 11:09:00,5.9,-6.5,30.24,WNW,292,4.7,10.4,56,0.00,FEW,OVC,0.00,200.0,WeatherDisplay:10.37,2013-01-22 16:09:00,
2013-01-22 11:14:00,5.9,-6.5,30.24,NNW,338,10.0,12.1,56,0.00,FEW,OVC,0.00,200.0,WeatherDisplay:10.37,2013-01-22 16:14:00,
2013-01-22 11:19:00,5.9,-6.5,30.24,WNW,292,8.1,12.1,56,0.00,FEW,OVC,0.00,200.0,WeatherDisplay:10.37,2013-01-22 16:19:00,
2013-01-22 11:24:00,5.9,-6.5,30.24,West,270,3.3,5.8,56,0.00,FEW,OVC,0.00,200.0,WeatherDisplay:10.37,2013-01-22 16:24:00,
2013-01-22 11:29:00,6.1,-6.3,30.21,WNW,292,9.2,13.8,56,0.00,FEW,OVC,0.00,200.0,WeatherDisplay:10.37,2013-01-22 16:29:00,
2013-01-22 11:34:00,6.3,-6.1,30.21,WSW,248,4.5,9.2,56,0.00,FEW,OVC,0.00,200.0,WeatherDisplay:10.37,2013-01-22 16:34:00,
2013-01-22 11:39:00,6.3,-6.1,30.21,WNW,292,9.7,11.5,56,0.00,FEW,OVC,0.00,200.0,WeatherDisplay:10.37,2013-01-22 16:39:00,
2013-01-22 11:44:00,6.4,-5.9,30.24,WNW,292,9.4,11.5,56,0.00,FEW,OVC,0.00,200.0,WeatherDisplay:10.37,2013-01-22 16:44:00,
2013-01-22 11:49:00,6.6,-5.8,30.24,WNW,292,7.8,10.4,56,0.00,FEW,OVC,0.00,200.0,WeatherDisplay:10.37,2013-01-22 16:49:00,
2013-01-22 11:54:00,7.0,-5.4,30.24,WNW,292,8.7,12.7,56,0.00,FEW,OVC,0.00,200.0,WeatherDisplay:10.37,2013-01-22 16:54:00,
2013-01-22 11:59:00,7.0,-5.4,30.24,NW,315,6.4,9.2,56,0.00,FEW,OVC,0.00,300.0,WeatherDisplay:10.37,2013-01-22 16:59:00,
2013-01-22 12:04:00,7.2,-5.3,30.24,WNW,292,8.7,12.7,56,0.00,CLR,OVC,0.00,200.0,WeatherDisplay:10.37,2013-01-22 17:04:00,
2013-01-22 12:09:00,7.2,-5.3,30.24,WNW,292,7.4,10.4,56,0.00,CLR,OVC,0.00,300.0,WeatherDisplay:10.37,2013-01-22 17:09:00,
2013-01-22 12:14:00,7.5,-4.9,30.24,WNW,292,6.7,8.7,56,0.00,CLR,OVC,0.00,200.0,WeatherDisplay:10.37,2013-01-22 17:14:00,
2013-01-22 12:19:00,8.1,-4.4,30.24,West,270,6.4,8.5,56,0.00,CLR,OVC,0.00,300.0,WeatherDisplay:10.37,2013-01-22 17:19:00,
2013-01-22 12:24:00,8.4,-4.1,30.24,WSW,248,8.5,10.4,56,0.00,CLR,OVC,0.00,300.0,WeatherDisplay:10.37,2013-01-22 17:24:00,
2013-01-22 12:29:00,8.6,-3.9,30.21,SSW,202,5.9,8.1,56,0.00,CLR,OVC,0.00,300.0,WeatherDisplay:10.37,2013-01-22 17:29:00,
2013-01-22 12:34:00,9.0,-3.6,30.21,West,270,7.4,10.4,56,0.00,CLR,OVC,0.00,300.0,WeatherDisplay:10.37,2013-01-22 17:34:00,
2013-01-22 12:39:00,9.3,-3.2,30.21,WSW,248,4.5,6.9,56,0.00,CLR,OVC,0.00,300.0,WeatherDisplay:10.37,2013-01-22 17:39:00,
2013-01-22 12:44:00,9.5,-3.1,30.21,WSW,248,9.4,11.5,56,0.00,CLR,OVC,0.00,300.0,WeatherDisplay:10.37,2013-01-22 17:44:00,
2013-01-22 12:50:00,9.7,-2.9,30.21,WNW,292,8.1,12.5,56,0.00,CLR,OVC,0.00,300.0,WeatherDisplay:10.37,2013-01-22 17:50:00,
2013-01-22 12:55:00,9.7,-2.9,30.21,WNW,292,5.6,10.0,56,0.00,CLR,OVC,0.00,300.0,WeatherDisplay:10.37,2013-01-22 17:55:00,
2013-01-22 13:00:00,10.0,-2.6,30.21,WSW,248,10.9,13.8,56,0.00,CLR,OVC,0.00,200.0,WeatherDisplay:10.37,2013-01-22 18:00:00,
2013-01-22 13:05:00,10.2,-2.4,30.21,WSW,248,6.7,15.4,56,0.00,SCT,OVC,0.00,300.0,WeatherDisplay:10.37,2013-01-22 18:05:00,
2013-01-22 13:10:00,10.0,-2.6,30.21,SW,225,8.5,12.7,56,0.00,SCT,OVC,0.00,300.0,WeatherDisplay:10.37,2013-01-22 18:10:00,
2013-01-22 13:15:00,10.0,-2.6,30.21,WSW,248,7.8,12.7,56,0.00,SCT,OVC,0.00,300.0,WeatherDisplay:10.37,2013-01-22 18:15:00,
2013-01-22 13:20:00,10.2,-2.4,30.21,WSW,248,6.4,12.3,56,0.00,SCT,OVC,0.00,200.0,WeatherDisplay:10.37,2013-01-22 18:20:00,
2013-01-22 13:25:00,10.0,-2.6,30.21,WNW,292,7.8,11.5,56,0.00,SCT,OVC,0.00,300.0,WeatherDisplay:10.37,2013-01-22 18:25:00,
2013-01-22 13:30:00,9.9,-2.7,30.21,WNW,292,8.1,9.2,56,0.00,SCT,OVC,0.00,300.0,WeatherDisplay:10.37,2013-01-22 18:30:00,
2013-01-22 13:35:00,10.0,-2.6,30.21,West,270,6.7,10.4,56,0.00,SCT,OVC,0.00,300.0,WeatherDisplay:10.37,2013-01-22 18:35:00,
2013-01-22 13:40:00,10.0,-2.6,30.21,SW,225,7.6,12.7,56,0.00,SCT,OVC,0.00,200.0,WeatherDisplay:10.37,2013-01-22 18:40:00,
2013-01-22 13:45:00,10.2,-2.4,30.21,WNW,292,6.2,10.4,56,0.00,SCT,OVC,0.00,200.0,WeatherDisplay:10.37,2013-01-22 18:45:00,
2013-01-22 13:50:00,10.2,-2.4,30.21,WSW,248,6.2,8.1,56,0.00,SCT,OVC,0.00,200.0,WeatherDisplay:10.37,2013-01-22 18:50:00,
2013-01-22 13:55:00,10.4,-2.2,30.21,SSW,202,6.4,10.4,56,0.00,SCT,OVC,0.00,200.0,WeatherDisplay:10.37,2013-01-22 18:55:00,
2013-01-22 14:00:00,10.4,-2.2,30.21,WSW,248,7.4,13.8,56,0.00,SCT,OVC,0.00,200.0,WeatherDisplay:10.37,2013-01-22 19:00:00,
2013-01-22 14:05:00,10.6,-2.0,30.21,WSW,248,6.7,9.2,56,0.00,OVC,,0.00,300.0,WeatherDisplay:10.37,2013-01-22 19:05:00,
2013-01-22 14:10:00,10.8,-1.9,30.21,SW,225,6.9,8.1,56,0.00,OVC,,0.00,300.0,WeatherDisplay:10.37,2013-01-22 19:10:00,
2013-01-22 14:15:00,10.9,-1.7,30.21,NW,315,4.7,8.1,56,0.00,OVC,,0.00,200.0,WeatherDisplay:10.37,2013-01-22 19:15:00,
2013-01-22 14:20:00,11.1,-1.5,30.21,WSW,248,3.3,4.6,56,0.00,OVC,,0.00,200.0,WeatherDisplay:10.37,2013-01-22 19:20:00,
2013-01-22 14:25:00,11.1,-1.5,30.21,WNW,292,6.4,10.0,56,0.00,OVC,,0.00,200.0,WeatherDisplay:10.37,2013-01-22 19:25:00,
2013-01-22 14:30:00,10.8,-1.9,30.21,WNW,292,6.0,9.2,56,0.00,OVC,,0.00,200.0,WeatherDisplay:10.37,2013-01-22 19:30:00,
2013-01-22 14:35:00,10.8,-1.9,30.21,WNW,292,6.0,10.5,56,0.00,OVC,,0.00,200.0,WeatherDisplay:10.37,2013-01-22 19:35:00,
2013-01-22 14:40:00,10.4,-2.2,30.21,WNW,292,7.1,12.3,56,0.00,OVC,,0.00,200.0,WeatherDisplay:10.37,2013-01-22 19:40:00,
2013-01-22 14:45:00,10.0,-2.6,30.21,WNW,292,9.4,11.5,56,0.00,OVC,,0.00,200.0,WeatherDisplay:10.37,2013-01-22 19:45:00,
2013-01-22 14:50:00,10.0,-2.6,30.21,West,270,4.0,8.1,56,0.00,OVC,,0.00,200.0,WeatherDisplay:10.37,2013-01-22 19:50:00,
2013-01-22 14:55:00,10.2,-2.4,30.21,WNW,292,4.5,8.1,56,0.00,OVC,,0.00,200.0,WeatherDisplay:10.37,2013-01-22 19:55:00,
2013-01-22 15:00:00,10.4,-2.2,30.21,NW,315,5.9,8.1,56,0.00,OVC,,0.00,100.0,WeatherDisplay:10.37,2013-01-22 20:00:00,
2013-01-22 15:05:00,10.4,-2.2,30.21,WNW,292,5.9,8.1,56,0.00,BKN,OVC,0.00,100.0,WeatherDisplay:10.37,2013-01-22 20:05:00,
2013-01-22 15:10:00,10.6,-2.0,30.21,WNW,292,2.9,4.6,56,0.00,BKN,OVC,0.00,100.0,WeatherDisplay:10.37,2013-01-22 20:10:00,
2013-01-22 15:15:00,10.8,-1.9,30.21,SW,225,6.2,9.2,56,0.00,BKN,OVC,0.00,100.0,WeatherDisplay:10.37,2013-01-22 20:15:00,
2013-01-22 15:20:00,10.9,-1.7,30.21,West,270,6.9,9.2,56,0.00,BKN,OVC,0.00,100.0,WeatherDisplay:10.37,2013-01-22 20:20:00,
2013-01-22 15:25:00,10.9,-1.7,30.21,WNW,292,6.4,9.2,56,0.00,BKN,OVC,0.00,100.0,WeatherDisplay:10.37,2013-01-22 20:25:00,
2013-01-22 15:30:00,10.9,-1.7,30.21,NNW,338,5.9,10.7,56,0.00,BKN,OVC,0.00,100.0,WeatherDisplay:10.37,2013-01-22 20:30:00,
2013-01-22 15:35:00,10.8,-1.9,30.21,WNW,292,6.7,8.5,56,0.00,BKN,OVC,0.00,100.0,WeatherDisplay:10.37,2013-01-22 20:35:00,
2013-01-22 15:40:00,10.9,-1.7,30.21,WNW,292,7.4,9.2,56,0.00,BKN,OVC,0.00,100.0,WeatherDisplay:10.37,2013-01-22 20:40:00,
2013-01-22 15:45:00,10.9,-1.7,30.21,West,270,6.0,11.5,56,0.00,BKN,OVC,0.00,100.0,WeatherDisplay:10.37,2013-01-22 20:45:00,
2013-01-22 15:50:00,11.1,-1.5,30.21,WNW,292,6.2,8.1,56,0.00,BKN,OVC,0.00,100.0,WeatherDisplay:10.37,2013-01-22 20:50:00,
2013-01-22 15:55:00,10.9,-1.7,30.21,West,270,7.4,10.4,56,0.00,BKN,OVC,0.00,100.0,WeatherDisplay:10.37,2013-01-22 20:55:00,
2013-01-22 16:00:00,11.1,-1.5,30.21,WSW,248,6.4,7.8,56,0.00,BKN,OVC,0.00,100.0,WeatherDisplay:10.37,2013-01-22 21:00:00,
2013-01-22 16:05:00,11.1,-1.5,30.21,WSW,248,7.4,11.5,56,0.00,SCT,OVC,0.00,100.0,WeatherDisplay:10.37,2013-01-22 21:05:00,
2013-01-22 16:10:00,11.1,-1.5,30.21,WNW,292,6.4,12.7,56,0.00,SCT,OVC,0.00,0.0,WeatherDisplay:10.37,2013-01-22 21:10:00,
2013-01-22 16:15:00,11.1,-1.5,30.18,West,270,6.7,10.4,56,0.00,SCT,OVC,0.00,0.0,WeatherDisplay:10.37,2013-01-22 21:15:00,
2013-01-22 16:20:00,11.1,-1.5,30.18,WNW,292,6.7,10.4,56,0.00,SCT,OVC,0.00,0.0,WeatherDisplay:10.37,2013-01-22 21:20:00,
2013-01-22 16:25:00,11.1,-1.5,30.18,WSW,248,6.2,9.2,56,0.00,SCT,OVC,0.00,0.0,WeatherDisplay:10.37,2013-01-22 21:25:00,
2013-01-22 16:30:00,11.1,-1.5,30.21,WSW,248,8.1,11.5,56,0.00,SCT,OVC,0.00,0.0,WeatherDisplay:10.37,2013-01-22 21:30:00,
2013-01-22 16:31:00,11.1,-1.5,30.21,West,270,9.4,12.7,56,0.00,SCT,OVC,0.00,0.0,WeatherDisplay:10.37,2013-01-22 21:31:00,
2013-01-22 16:37:00,11.3,-1.4,30.21,WNW,292,9.2,11.5,56,0.00,SCT,OVC,0.00,0.0,WeatherDisplay:10.37,2013-01-22 21:37:00,
2013-01-22 16:42:00,11.3,-1.4,30.21,WNW,292,10.5,10.7,56,0.00,SCT,OVC,0.00,0.0,WeatherDisplay:10.37,2013-01-22 21:42:00,
2013-01-22 16:47:00,17.4,4.0,30.21,WSW,248,4.9,10.4,55,0.00,SCT,OVC,0.00,0.0,WeatherDisplay:10.37,2013-01-22 21:47:00,
2013-01-22 16:52:00,15.8,2.5,30.21,WNW,292,7.4,10.4,55,0.00,SCT,OVC,0.00,0.0,WeatherDisplay:10.37,2013-01-22 21:52:00,
2013-01-22 16:57:00,14.4,-0.1,30.21,WSW,248,6.9,9.2,52,0.00,SCT,OVC,0.00,0.0,WeatherDisplay:10.37,2013-01-22 21:57:00,
2013-01-22 17:02:00,13.6,-0.3,30.21,West,270,7.1,7.1,53,0.00,SCT,OVC,0.00,0.0,WeatherDisplay:10.37,2013-01-22 22:02:00,
2013-01-22 17:07:00,13.1,-0.9,30.21,WNW,292,8.5,15.0,53,0.00,SCT,OVC,0.00,0.0,WeatherDisplay:10.37,2013-01-22 22:07:00,
2013-01-22 17:12:00,12.4,-1.5,30.21,WSW,248,6.4,12.7,53,0.00,SCT,OVC,0.00,0.0,WeatherDisplay:10.37,2013-01-22 22:12:00,
2013-01-22 17:17:00,12.0,-1.9,30.21,WNW,292,6.2,9.2,53,0.00,SCT,OVC,0.00,0.0,WeatherDisplay:10.37,2013-01-22 22:17:00,
2013-01-22 17:22:00,11.8,-2.0,30.21,SSW,202,7.4,8.1,53,0.00,SCT,OVC,0.00,0.0,WeatherDisplay:10.37,2013-01-22 22:22:00,
2013-01-22 17:27:00,11.7,-2.2,30.21,WNW,292,8.5,12.7,53,0.00,SCT,OVC,0.00,0.0,WeatherDisplay:10.37,2013-01-22 22:27:00,
2013-01-22 17:32:00,11.5,-2.4,30.21,WNW,292,6.0,6.0,53,0.00,SCT,OVC,0.00,0.0,WeatherDisplay:10.37,2013-01-22 22:32:00,
2013-01-22 17:37:00,11.3,-2.5,30.21,WSW,248,3.3,6.2,53,0.00,SCT,OVC,0.00,0.0,WeatherDisplay:10.37,2013-01-22 22:37:00,
2013-01-22 17:42:00,11.1,-2.7,30.21,WSW,248,5.4,6.9,53,0.00,SCT,OVC,0.00,0.0,WeatherDisplay:10.37,2013-01-22 22:42:00,
2013-01-22 17:47:00,11.5,-2.4,30.21,West,270,6.2,10.2,53,0.00,SCT,OVC,0.00,0.0,WeatherDisplay:10.37,2013-01-22 22:47:00,
2013-01-22 17:52:00,11.3,-2.5,30.21,West,270,9.8,12.7,53,0.00,SCT,OVC,0.00,0.0,WeatherDisplay:10.37,2013-01-22 22:52:00,
2013-01-22 17:57:00,11.1,-2.7,30.24,WNW,292,4.3,5.8,53,0.00,SCT,OVC,0.00,0.0,WeatherDisplay:10.37,2013-01-22 22:57:00,
2013-01-22 18:02:00,10.9,-2.9,30.24,SSW,202,6.9,9.2,53,0.00,BKN,OVC,0.00,0.0,WeatherDisplay:10.37,2013-01-22 23:02:00,
2013-01-22 18:07:00,10.9,-2.9,30.24,WNW,292,5.6,8.1,53,0.00,BKN,OVC,0.00,0.0,WeatherDisplay:10.37,2013-01-22 23:07:00,
2013-01-22 18:12:00,10.8,-3.0,30.24,WNW,292,4.0,6.9,53,0.00,BKN,OVC,0.00,0.0,WeatherDisplay:10.37,2013-01-22 23:12:00,
2013-01-22 18:18:00,10.8,-3.0,30.24,WSW,248,6.7,8.1,53,0.00,BKN,OVC,0.00,0.0,WeatherDisplay:10.37,2013-01-22 23:18:00,
2013-01-22 18:23:00,10.8,-3.0,30.24,WNW,292,5.9,9.7,53,0.00,BKN,OVC,0.00,0.0,WeatherDisplay:10.37,2013-01-22 23:23:00,
2013-01-22 18:28:00,10.6,-3.2,30.24,WNW,292,6.9,9.2,53,0.00,BKN,OVC,0.00,0.0,WeatherDisplay:10.37,2013-01-22 23:28:00,
2013-01-22 18:33:00,10.4,-3.4,30.24,NW,315,6.0,6.9,53,0.00,BKN,OVC,0.00,0.0,WeatherDisplay:10.37,2013-01-22 23:33:00,
2013-01-22 18:38:00,10.4,-3.4,30.24,WSW,248,5.6,6.9,53,0.00,BKN,OVC,0.00,0.0,WeatherDisplay:10.37,2013-01-22 23:38:00,
2013-01-22 18:43:00,10.4,-3.4,30.24,West,270,4.5,9.2,53,0.00,BKN,OVC,0.00,0.0,WeatherDisplay:10.37,2013-01-22 23:43:00,
2013-01-22 18:48:00,10.4,-3.4,30.24,WSW,248,5.9,7.4,53,0.00,BKN,OVC,0.00,0.0,WeatherDisplay:10.37,2013-01-22 23:48:00,
2013-01-22 18:53:00,10.4,-3.4,30.24,WSW,248,4.3,8.1,53,0.00,BKN,OVC,0.00,0.0,WeatherDisplay:10.37,2013-01-22 23:53:00,
2013-01-22 18:58:00,10.4,-3.4,30.24,WSW,248,4.5,5.8,53,0.00,BKN,OVC,0.00,0.0,WeatherDisplay:10.37,2013-01-22 23:58:00,
2013-01-22 19:03:00,10.4,-3.4,30.24,WNW,292,4.0,6.9,53,0.00,-SN,OVC,0.00,0.0,WeatherDisplay:10.37,2013-01-23 00:03:00,
2013-01-22 19:08:00,10.4,-3.4,30.24,WSW,248,3.8,4.6,53,0.00,-SN,OVC,0.00,0.0,WeatherDisplay:10.37,2013-01-23 00:08:00,
2013-01-22 19:13:00,10.6,-3.2,30.24,West,270,2.4,4.6,53,0.00,-SN,OVC,0.00,0.0,WeatherDisplay:10.37,2013-01-23 00:13:00,
2013-01-22 19:18:00,10.6,-3.2,30.24,West,270,5.9,6.2,53,0.00,-SN,OVC,0.00,0.0,WeatherDisplay:10.37,2013-01-23 00:18:00,
2013-01-22 19:23:00,10.4,-3.4,30.24,WNW,292,5.4,5.8,53,0.00,-SN,OVC,0.00,0.0,WeatherDisplay:10.37,2013-01-23 00:23:00,
2013-01-22 19:28:00,10.4,-3.4,30.24,WNW,292,4.3,9.2,53,0.00,-SN,OVC,0.00,0.0,WeatherDisplay:10.37,2013-01-23 00:28:00,
2013-01-22 19:33:00,10.4,-3.4,30.24,WNW,292,5.4,8.1,53,0.00,-SN,OVC,0.00,0.0,WeatherDisplay:10.37,2013-01-23 00:33:00,
2013-01-22 19:38:00,10.2,-3.5,30.24,WNW,292,6.9,10.4,53,0.00,-SN,OVC,0.00,0.0,WeatherDisplay:10.37,2013-01-23 00:38:00,
2013-01-22 19:43:00,10.2,-3.5,30.24,West,270,3.8,6.9,53,0.00,-SN,OVC,0.00,0.0,WeatherDisplay:10.37,2013-01-23 00:43:00,
2013-01-22 19:48:00,10.0,-3.7,30.24,West,270,4.3,4.3,53,0.00,-SN,OVC,0.00,0.0,WeatherDisplay:10.37,2013-01-23 00:48:00,
2013-01-22 19:53:00,10.0,-3.7,30.24,West,270,5.4,9.2,53,0.00,-SN,OVC,0.00,0.0,WeatherDisplay:10.37,2013-01-23 00:53:00,
2013-01-22 19:58:00,9.9,-3.9,30.24,West,270,4.0,5.8,53,0.00,-SN,OVC,0.00,0.0,WeatherDisplay:10.37,2013-01-23 00:58:00,
2013-01-22 20:03:00,9.7,-4.1,30.24,WSW,248,3.8,6.9,53,0.00,-SN,OVC,0.00,0.0,WeatherDisplay:10.37,2013-01-23 01:03:00,
2013-01-22 20:08:00,9.5,-4.2,30.24,WSW,248,4.9,8.1,53,0.00,-SN,OVC,0.00,0.0,WeatherDisplay:10.37,2013-01-23 01:08:00,
2013-01-22 20:13:00,9.5,-4.2,30.24,WSW,248,4.5,5.8,53,0.00,-SN,OVC,0.00,0.0,WeatherDisplay:10.37,2013-01-23 01:13:00,
2013-01-22 20:18:00,9.3,-4.4,30.24,West,270,4.9,6.9,53,0.00,-SN,OVC,0.00,0.0,WeatherDisplay:10.37,2013-01-23 01:18:00,
2013-01-22 20:23:00,9.3,-4.4,30.24,WSW,248,4.7,5.8,53,0.00,-SN,OVC,0.00,0.0,WeatherDisplay:10.37,2013-01-23 01:23:00,
2013-01-22 20:28:00,9.1,-4.6,30.24,WSW,248,4.0,5.8,53,0.00,-SN,OVC,0.00,0.0,WeatherDisplay:10.37,2013-01-23 01:28:00,
2013-01-22 20:33:00,9.1,-4.6,30.24,WNW,292,2.9,4.6,53,0.00,-SN,OVC,0.00,0.0,WeatherDisplay:10.37,2013-01-23 01:33:00,
2013-01-22 20:38:00,9.0,-4.7,30.24,WSW,248,3.3,3.8,53,0.00,-SN,OVC,0.00,0.0,WeatherDisplay:10.37,2013-01-23 01:38:00,
2013-01-22 20:43:00,9.0,-4.7,30.24,West,270,4.5,5.8,53,0.00,-SN,OVC,0.00,0.0,WeatherDisplay:10.37,2013-01-23 01:43:00,
2013-01-22 20:48:00,9.0,-4.7,30.24,West,270,3.6,7.4,53,0.00,-SN,OVC,0.00,0.0,WeatherDisplay:10.37,2013-01-23 01:48:00,
2013-01-22 20:53:00,9.0,-4.7,30.24,WNW,292,5.9,8.1,53,0.00,-SN,OVC,0.00,0.0,WeatherDisplay:10.37,2013-01-23 01:53:00,
2013-01-22 20:58:00,9.1,-4.6,30.24,West,270,4.5,6.4,53,0.00,-SN,OVC,0.00,0.0,WeatherDisplay:10.37,2013-01-23 01:58:00,
2013-01-22 21:03:00,9.1,-4.6,30.24,West,270,4.7,8.1,53,0.00,BKN,OVC,0.00,0.0,WeatherDisplay:10.37,2013-01-23 02:03:00,
2013-01-22 21:08:00,9.9,-3.9,30.24,WSW,248,4.5,5.8,53,0.00,BKN,OVC,0.00,0.0,WeatherDisplay:10.37,2013-01-23 02:08:00,
2013-01-22 21:13:00,9.7,-4.1,30.24,West,270,3.1,5.8,53,0.00,BKN,OVC,0.00,0.0,WeatherDisplay:10.37,2013-01-23 02:13:00,
2013-01-22 21:18:00,9.7,-4.1,30.24,WSW,248,4.9,6.9,53,0.00,BKN,OVC,0.00,0.0,WeatherDisplay:10.37,2013-01-23 02:18:00,
2013-01-22 21:23:00,9.5,-4.2,30.24,WSW,248,6.0,8.1,53,0.00,BKN,OVC,0.00,0.0,WeatherDisplay:10.37,2013-01-23 02:23:00,
2013-01-22 21:29:00,9.5,-4.2,30.27,West,270,2.9,5.9,53,0.00,BKN,OVC,0.00,0.0,WeatherDisplay:10.37,2013-01-23 02:29:00,
2013-01-22 21:34:00,9.5,-4.2,30.27,WSW,248,3.8,5.8,53,0.00,BKN,OVC,0.00,0.0,WeatherDisplay:10.37,2013-01-23 02:34:00,
2013-01-22 21:38:00,9.5,-4.2,30.27,WSW,248,5.4,6.9,53,0.00,BKN,OVC,0.00,0.0,WeatherDisplay:10.37,2013-01-23 02:38:00,
2013-01-22 21:44:00,9.5,-4.2,30.24,WSW,248,6.0,6.9,53,0.00,BKN,OVC,0.00,0.0,WeatherDisplay:10.37,2013-01-23 02:44:00,
2013-01-22 21:49:00,9.3,-4.4,30.24,West,270,5.6,6.9,53,0.00,BKN,OVC,0.00,0.0,WeatherDisplay:10.37,2013-01-23 02:49:00,
2013-01-22 21:54:00,9.3,-4.4,30.24,WSW,248,3.8,5.8,53,0.00,BKN,OVC,0.00,0.0,WeatherDisplay:10.37,2013-01-23 02:54:00,
2013-01-22 21:59:00,9.3,-4.4,30.24,WSW,248,2.9,3.8,53,0.00,BKN,OVC,0.00,0.0,WeatherDisplay:10.37,2013-01-23 02:59:00,
2013-01-22 22:04:00,9.3,-4.4,30.24,West,270,3.8,4.9,53,0.00,OVC,,0.00,0.0,WeatherDisplay:10.37,2013-01-23 03:04:00,
2013-01-22 22:09:00,9.1,-4.6,30.24,West,270,5.6,5.8,53,0.00,OVC,,0.00,0.0,WeatherDisplay:10.37,2013-01-23 03:09:00,
2013-01-22 22:14:00,9.1,-4.6,30.24,WNW,292,2.6,4.6,53,0.00,OVC,,0.00,0.0,WeatherDisplay:10.37,2013-01-23 03:14:00,
2013-01-22 22:19:00,9.1,-4.6,30.24,WSW,248,3.1,6.9,53,0.00,OVC,,0.00,0.0,WeatherDisplay:10.37,2013-01-23 03:19:00,
2013-01-22 22:24:00,9.1,-4.6,30.24,West,270,4.5,5.8,53,0.00,OVC,,0.00,0.0,WeatherDisplay:10.37,2013-01-23 03:24:00,
2013-01-22 22:29:00,9.1,-4.6,30.27,West,270,3.3,5.9,53,0.00,OVC,,0.00,0.0,WeatherDisplay:10.37,2013-01-23 03:29:00,
2013-01-22 22:34:00,9.1,-4.6,30.27,West,270,4.0,8.1,53,0.00,OVC,,0.00,0.0,WeatherDisplay:10.37,2013-01-23 03:34:00,
2013-01-22 22:39:00,9.1,-4.6,30.27,WNW,292,4.9,8.1,53,0.00,OVC,,0.00,0.0,WeatherDisplay:10.37,2013-01-23 03:39:00,
2013-01-22 22:44:00,9.0,-4.7,30.24,WSW,248,4.0,4.6,53,0.00,OVC,,0.00,0.0,WeatherDisplay:10.37,2013-01-23 03:44:00,
2013-01-22 22:49:00,9.0,-4.7,30.24,WSW,248,6.0,6.0,53,0.00,OVC,,0.00,0.0,WeatherDisplay:10.37,2013-01-23 03:49:00,
2013-01-22 22:54:00,9.0,-4.7,30.24,West,270,3.1,6.9,53,0.00,OVC,,0.00,0.0,WeatherDisplay:10.37,2013-01-23 03:54:00,
2013-01-22 22:59:00,8.8,-4.9,30.24,WSW,248,4.7,5.9,53,0.00,OVC,,0.00,0.0,WeatherDisplay:10.37,2013-01-23 03:59:00,
2013-01-22 23:04:00,8.8,-4.9,30.24,SW,225,3.8,6.9,53,0.00,-SN,OVC,0.00,0.0,WeatherDisplay:10.37,2013-01-23 04:04:00,
2013-01-22 23:09:00,8.8,-4.9,30.24,WNW,292,8.1,9.2,53,0.00,-SN,OVC,0.00,0.0,WeatherDisplay:10.37,2013-01-23 04:09:00,
2013-01-22 23:14:00,8.8,-4.9,30.24,WNW,292,3.1,6.9,53,0.00,-SN,OVC,0.00,0.0,WeatherDisplay:10.37,2013-01-23 04:14:00,
2013-01-22 23:19:00,8.8,-4.9,30.24,WNW,292,4.3,8.1,53,0.00,-SN,OVC,0.00,0.0,WeatherDisplay:10.37,2013-01-23 04:19:00,
2013-01-22 23:24:00,8.6,-5.1,30.24,WSW,248,7.6,10.4,53,0.00,-SN,OVC,0.00,0.0,WeatherDisplay:10.37,2013-01-23 04:24:00,
2013-01-22 23:29:00,8.6,-5.1,30.24,West,270,6.4,8.1,53,0.00,-SN,OVC,0.00,0.0,WeatherDisplay:10.37,2013-01-23 04:29:00,
2013-01-22 23:34:00,8.4,-5.2,30.24,WSW,248,4.9,8.1,53,0.00,-SN,OVC,0.00,0.0,WeatherDisplay:10.37,2013-01-23 04:34:00,
2013-01-22 23:39:00,8.4,-5.2,30.24,West,270,7.6,9.2,53,0.00,-SN,OVC,0.00,0.0,WeatherDisplay:10.37,2013-01-23 04:39:00,
2013-01-22 23:44:00,8.4,-5.2,30.24,West,270,6.7,9.2,53,0.00,-SN,OVC,0.00,0.0,WeatherDisplay:10.37,2013-01-23 04:44:00,
2013-01-22 23:49:00,8.2,-5.4,30.24,WSW,248,4.5,5.8,53,0.00,-SN,OVC,0.00,0.0,WeatherDisplay:10.37,2013-01-23 04:49:00,
2013-01-22 23:54:00,8.2,-5.4,30.24,WSW,248,5.6,8.1,53,0.00,-SN,OVC,0.00,0.0,WeatherDisplay:10.37,2013-01-23 04:54:00,
2013-01-22 23:59:00,8.1,-5.6,30.24,WNW,292,7.4,9.2,53,0.00,-SN,OVC,0.00,0.0,WeatherDisplay:10.37,2013-01-23 04:59:00,